Weather History for El Centro, CA

Change the Weather History Date:

Friday, January 11, 2013

  Actual Average Record
Temperature  
Mean Temperature 47 °F -  
Max Temperature 57 °F 68 °F 78 °F (2002)
Min Temperature 37 °F 44 °F 34 °F (2011)
Degree Days  
Heating Degree Days 18    
Moisture  
Dew Point 18 °F    
Average Humidity 33    
Maximum Humidity 51    
Minimum Humidity 16    
Precipitation  
Precipitation 0.00 in - - ()
Sea Level Pressure  
Sea Level Pressure 30.12 in    
Wind  
Wind Speed 11 mph (West)    
Max Wind Speed 21 mph    
Max Gust Speed -    
Visibility 10 miles    
Events      
Averages and records for this station are not official NWS values.
T = Trace of Precipitation, MM = Missing Value Source: NWS Daily Summary

Daily Weather History Graph

Daily Weather History Graph

Search for Another Location

Airport:

Trip Planner

Search our weather history database for the weather conditions in past years. The results will help you decide how hot, cold, wet, or windy it might be!

Date:

Astronomy

Jan. 11, 2013 Rise Set
Actual Time 6:45 AM PST 4:55 PM PST
Civil Twilight 6:18 AM PST 5:22 PM PST
Nautical Twilight 5:48 AM PST 5:53 PM PST
Astronomical Twilight 5:18 AM PST 6:23 PM PST
Moon 6:24 AM PST (1/11) 5:15 PM PST (1/11)
Length of Visible Light 11h 03m
Length of Day
10h 10m
New Moon, 0% of the Moon is Illuminated
Jan 11
New Moon
Jan 18
First Quarter
Jan 26
Full
Feb 3
Last Quarter
Feb 9
New

Hourly Weather History & Observations

Time (PST) Temp. Windchill Dew Point Humidity Pressure Visibility Wind Dir Wind Speed Gust Speed Precip Events Conditions
12:56 AM 48.9 °F - 19.9 °F 32% 30.09 in 10.0 mi West 20.7 mph - N/A   Clear
1:56 AM 46.0 °F 39.9 °F 19.9 °F 35% 30.11 in 10.0 mi West 13.8 mph - N/A   Clear
2:56 AM 46.9 °F - 21.0 °F 36% 30.12 in 10.0 mi West 19.6 mph - N/A   Clear
3:56 AM 45.0 °F 37.9 °F 21.0 °F 39% 30.12 in 10.0 mi West 16.1 mph - N/A   Clear
4:56 AM 39.9 °F 34.5 °F 19.9 °F 45% 30.13 in 10.0 mi NW 8.1 mph - N/A   Clear
5:56 AM 39.9 °F - 19.9 °F 45% 30.15 in 10.0 mi Calm Calm - N/A   Clear
6:56 AM 37.0 °F 32.4 °F 19.0 °F 48% 30.16 in 10.0 mi NW 5.8 mph - N/A   Clear
7:56 AM 41.0 °F 39.0 °F 21.9 °F 47% 30.19 in 10.0 mi West 3.5 mph - N/A   Clear
8:56 AM 50.0 °F - 19.9 °F 31% 30.19 in 10.0 mi West 9.2 mph - N/A   Clear
9:56 AM 54.0 °F - 15.1 °F 22% 30.20 in 10.0 mi NW 10.4 mph - N/A   Clear
10:56 AM 54.0 °F - 15.1 °F 22% 30.17 in 10.0 mi WSW 6.9 mph - N/A   Clear
11:56 AM 55.0 °F - 12.9 °F 19% 30.14 in 10.0 mi WNW 9.2 mph - N/A   Clear
12:56 PM 57.0 °F - 12.0 °F 17% 30.11 in 10.0 mi Variable 4.6 mph - N/A   Clear
1:56 PM 57.9 °F - 12.9 °F 17% 30.09 in 10.0 mi NNW 6.9 mph - N/A   Clear
2:56 PM 57.9 °F - 12.0 °F 16% 30.08 in 10.0 mi Variable 5.8 mph - N/A   Clear
3:55 PM - - - N/A% - - North - - N/A   Unknown
3:56 PM 57.0 °F - 12.9 °F 18% 30.07 in 10.0 mi NE 5.8 mph - N/A   Clear
4:56 PM 52.0 °F - 14.0 °F 22% 30.07 in 10.0 mi NE 3.5 mph - N/A   Clear
5:56 PM 51.1 °F - 14.0 °F 23% 30.07 in 10.0 mi SSW 10.4 mph - N/A   Clear
6:56 PM 48.9 °F - 19.0 °F 31% 30.08 in 10.0 mi West 10.4 mph - N/A   Clear
7:56 PM 46.0 °F 41.4 °F 19.9 °F 35% 30.09 in 10.0 mi West 9.2 mph - N/A   Clear
8:56 PM 43.0 °F 38.2 °F 23.0 °F 45% 30.10 in 10.0 mi SW 8.1 mph - N/A   Clear
9:56 PM 43.0 °F 37.7 °F 25.0 °F 49% 30.10 in 10.0 mi SW 9.2 mph - N/A   Clear
10:56 PM 43.0 °F 37.7 °F 25.0 °F 49% 30.10 in 10.0 mi SW 9.2 mph - N/A   Clear
11:56 PM 42.1 °F 36.6 °F 25.0 °F 51% 30.09 in 10.0 mi WSW 9.2 mph - N/A   Clear